sat.trackr.live / text

‹ back to catalog

EXPRESS-AT2

NORAD 39613 · 2014-010B

PAYLOAD ACTIVE UNKNOWN

§ Identity

Operator
Country
CIS
Launch date
2014-03-15
Launch site
TYMSC
Launch vehicle
Mass (kg)
RCS (m²)
47.47

Purposes: comms

External: N2YO · Heavens-Above · Gunter

§ Orbital elements

Epoch: 2026-05-25T04:00:38.227104Z

Period
1,436.06 min
Inclination
0.0190°
Eccentricity
0.0000554
Mean motion
1.00274673 rev/d
Perigee alt
35,783.4 km
Apogee alt
35,788.1 km
Semi-major
42,163.9 km
B*
0.0000e+0
RAAN
304.8103°
Arg perigee
39.0794°
Mean anomaly
15.0325°
Rev number
4,426

§ Raw data

EXPRESS-AT21 39613U 14010B   26145.16710911  .00000000  00000+0  00000+0 0  99902 39613   0.0190 304.8103 0000554  39.0794  15.0325  1.00274673 44261

JSON: /api/v1/satellites/39613 · /tle

For live sub-satellite position, see the globe view (requires WebGL).

§ Visibility from observer

Set your observer location to see the next 7 days of passes ≥ 10°. The values pass through the URL so the page stays shareable.

No JS? Fill the form by hand. The geolocation button needs JavaScript.